Tracking 28518 objects as of 2-Mar-2024
HD Live streaming from Space Station
objects crossing your sky now

FLOCK 4Q 32

Track FLOCK 4Q 32 now!
10-day predictions
FLOCK 4Q 32 is classified as:


NORAD ID: 58310
Int'l Code: 2023-174BG
Perigee: 508.0 km
Apogee: 523.8 km
Inclination: 97.5 °
Period: 94.8 minutes
Semi major axis: 6886 km
RCS: Unknown
Launch date: November 11, 2023
Source: United States (US)
Launch site: AIR FORCE WESTERN TEST RANGE (AFWTR)
Your satellite tracking list
Your tracking list is empty




NASA's NSSDC Master Catalog

Two Line Element Set (TLE):
1 58310U 23174BG  24061.74336489  .00023260  00000-0  11092-2 0  9999
2 58310  97.4703 138.1487 0011525 230.7505 129.2708 15.19035874 17423
Source of the keplerian elements: AFSPC